Regional Weather Roundup
Issued by NWS

Home | Current Version | Previous Version | Graphics & Text | Print | Product List | Glossary On
Versions: 1 2 3 4 5 6 7 8 9 10 11 12 13 14 15 16 17 18 19 20 21 22 23 24 25 26 27 28 29 30 31 32 33 34 35 36 37 38 39 40 41 42 43 44 45 46 47 48 49 50
000
ASUS43 KMKX 012120
RWRWI

WISCONSIN REGIONAL WEATHER ROUNDUP
NATIONAL WEATHER SERVICE MILWAUKEE/SULLIVAN WI
300 PM CST SUN MAR 01 2015

NOTE: "FAIR" INDICATES FEW OR NO CLOUDS BELOW 12,000 FEET WITH NO
SIGNIFICANT WEATHER AND/OR OBSTRUCTIONS TO VISIBILITY.

WIZ001-002-006>008-014>016-023>028-012200-
NORTHWEST WISCONSIN

CITY           SKY/WX    TMP DP  RH WIND       PRES   REMARKS
SUPERIOR ARPT  MOSUNNY   25   7  46 W13G24    30.14S WCI  13
ASHLAND        SUNNY     27   5  39 W15G22    30.10F WCI  15
HAYWARD        SUNNY     24   3  40 SW12G20   30.11S WCI  13
SIREN          SUNNY     24   6  45 W15G22    30.17S WCI  12
CUMBERLAND     SUNNY     23   5  46 W16       30.15S WCI  10
RICE LAKE      SUNNY     24   6  47 W13       30.19R WCI  12
CHETEK         SUNNY     24   6  45 W7G18     30.18R WCI  16
LADYSMITH      MOSUNNY   25   8  48 W10G18    30.14F WCI  14
EAU CLAIRE     SUNNY     25   6  44 W16       30.19S WCI  12
MENOMONIE      SUNNY     27   7  43 W15       30.21R WCI  15
NEW RICHMOND   SUNNY     25   8  48 W16G22    30.20S WCI  12
OSCEOLA        SUNNY     26   9  48 W16       30.23F WCI  14
$$

WIZ003>005-009-010-017-018-012200-
NORTH CENTRAL WISCONSIN

CITY           SKY/WX    TMP DP  RH WIND       PRES   REMARKS
MANITOWISH WTR FLURRIES  19   8  63 W12G24    30.05S WCI   7
ARBOR VITAE    FLURRIES  20  10  65 W15       30.06S WCI   6
WOODRUFF       FLURRIES  20  10  65 W15       30.06S WCI   6
RHINELANDER    CLOUDY    18   9  68 W15       30.07F WCI   4
EAGLE RIVER    FLURRIES  19   8  61 W15G22    30.04F WCI   5
LAND O LAKES   FLURRIES  20  10  64 W10       30.04F WCI   9
PHILLIPS       PTSUNNY   21   8  56 W7        30.09R WCI  13
TOMAHAWK       FLURRIES  19   9  63 W13       30.11S WCI   6
MEDFORD        CLOUDY    19  10  67 W8        30.12S WCI   9
MERRILL        LGT SNOW  19  11  71 W15       30.12S WCI   5
$$

WIZ029-030-035-036-043>047-012200-
CENTRAL WISCONSIN

CITY           SKY/WX    TMP DP  RH WIND       PRES   REMARKS
WAUSAU         LGT SNOW  19  11  70 W14       30.13S WCI   6
MOSINEE        LGT SNOW  19  14  79 SW13      30.16S WCI   7
MARSHFIELD     LGT SNOW  21  13  71 W12       30.16S WCI   9
STEVENS POINT  FLURRIES  19  11  70 W12G20    30.17R WCI   7
WAUPACA        CLOUDY    29  16  58 W13       30.17S WCI  19
WAUTOMA        PTSUNNY   27  16  63 W16G25    30.19S WCI  15
WISC RAPIDS    LGT SNOW  21  12  68 W13G20    30.20R WCI   9
CAMP DOUGLAS   PTSUNNY   25  18  74 W10       30.20F WCI  15
$$

WIZ011>013-019>022-031-037>040-048>050-012200-
NORTHEAST WISCONSIN

CITY           SKY/WX    TMP DP  RH WIND       PRES   REMARKS
ANTIGO         FLURRIES  18  11  75 W13G20    30.10S WCI   4
SHAWANO        CLOUDY    27  15  59 W10G17    30.15S WCI  18
OCONTO         CLOUDY    27  15  61 W15       30.14F WCI  16
STURGEON BAY   CLOUDY    25  16  68 SW14      30.16S WCI  13
GREEN BAY      CLOUDY    28  17  63 SW14      30.15F WCI  17
MANITOWOC      PTSUNNY   29  18  63 W14G20    30.18F WCI  18
APPLETON       PTSUNNY   28  16  59 SW18      30.15F WCI  16
CLINTONVILLE   CLOUDY    27  16  63 W8        30.15S WCI  18
OSHKOSH        MOSUNNY   27  15  61 SW14G20   30.17F WCI  16
$$

WIZ032>034-041-042-053>061-012200-
SOUTHWEST WISCONSIN

CITY           SKY/WX    TMP DP  RH WIND       PRES   REMARKS
LA CROSSE      SUNNY     26   7  44 W16       30.25S WCI  14
SPARTA         SUNNY     27  10  49 W14G21    30.23S WCI  15
VIROQUA        MOSUNNY   24  12  59 W12G23    30.21S WCI  13
BOSCOBEL       MIX PCPN  29  15  56 W12       30.26F WCI  19
PRAIRIE DU CHI MOSUNNY   26  12  56 W15       30.29S WCI  13
PLATTEVILLE    PTSUNNY   27  19  72 SW15G23   30.25S WCI  15
$$

WIZ056-057-062-063-064-067-068-012200-
SOUTH CENTRAL WISCONSIN

CITY           SKY/WX    TMP DP  RH WIND       PRES   REMARKS
REEDSBURG      CLOUDY    28  17  63 W14G20    30.21S WCI  17
BARABOO/DELLS  PTSUNNY   27  16  63 W8        30.19F WCI  18
LONE ROCK      PTSUNNY   29  16  58 W17       30.24S WCI  17
MINERAL POINT  CLOUDY    30  19  64 W10       30.22F WCI  21
MADISON        PTSUNNY   27  15  61 SW9G18    30.22F WCI  18
MIDDLETON      PTSUNNY   30  16  56 W13       30.22S WCI  20
WATERTOWN      MOSUNNY   26  16  66 SW13G18   30.21F WCI  15
MONROE         PTSUNNY   28  19  69 SW12      30.23F WCI  18
JANESVILLE     PTSUNNY   27  16  63 SW12G17   30.25F WCI  16
$$

WIZ051-052-058>065-066-070>072-012200-
SOUTHEAST WISCONSIN

CITY           SKY/WX    TMP DP  RH WIND       PRES   REMARKS
MILWAUKEE      MOSUNNY   27  13  55 SW14      30.23F WCI  16
WAUKESHA       MOSUNNY   25  12  58 SW12G17   30.23F WCI  14
MILWAUKEE/TIMM SUNNY     28  14  54 W13       30.22F WCI  18
RACINE         SUNNY     26  13  57 W12       30.25F WCI  16
BURLINGTON     MOSUNNY   24  13  64 SW10G17   30.25F WCI  14
KENOSHA        SUNNY     25  14  63 W12       30.24F WCI  14
FOND DU LAC    MOSUNNY   28  15  58 SW13      30.18F WCI  17
SHEBOYGAN      PTSUNNY   26  15  63 SW15      30.18F WCI  14
WEST BEND      PTSUNNY   28  14  54 SW14      30.19F WCI  17
JUNEAU         CLOUDY    26  16  65 SW16      30.21F WCI  14
$$

LSZ147-162-012200-
LAKE SUPERIOR

STATION/POSITION TIME  TEMP    WIND        PRES    WAVE
                       AIR SEA DIR/SP/G            HT/PER
                 (UTC) (F)     (DEG/KT/KT) (MB)    (FT/S)
DEVILS ISLAND    2100   24     240/ 26/ 29 1019.2F
PORT WING        2000   24     240/ 14/ 22 1020.0F
SAXON HARBOR     2000   25     270/ 11/ 21 1019.3F
$$

LMZ867-665-643>646-012200-
LAKE MICHIGAN

STATION/POSITION TIME  TEMP    WIND        PRES    WAVE
                       AIR SEA DIR/SP/G            HT/PER
                 (UTC) (F)     (DEG/KT/KT) (MB)    (FT/S)
NORTHPORT PIER   2100   27     220/  9/ 18 1020.0F
SISTER BAY       2043   28     220/ 15/ 19   N/A
KEWAUNEE LAKESHO 2000          220/ 12/ 18   N/A
SHEBOYGAN LAKESH 2100   26     230/ 15/ 17 1023.6F
PORT WASHINGTON  2000   29     230/  8/ 14 1024.0F
MILWAUKEE LAKESH 2100   28     260/  8/ 12   N/A
KENOSHA   LAKESH 2100   26     250/ 10/ 16 1024.4F
$$

TC  - TEMPERATURE IN CELSIUS
VSB - VISIBILITY IN STATUTE MILES
WCI - WIND CHILL INDEX
HX  - HEAT INDEX



USA.gov is the U.S. government's official web portal to all federal, state and local government web resources and services.